Home   Weather   Mandurah   Past weeks

Flag for Australia Past Weather in Mandurah, Western Australia, Australia — Yesterday and Last 2 Weeks

Now
69 °F

Mild.


Feels Like: 69 °F
Forecast: 65 / 86 °F
Wind: 6 mph from Southeast

Location: Mandurah Aws

Current Time: Jan 25, 2017 at 5:28:17 am

Latest Report: Jan 25, 2017 at 3:00 am


Visibility: N/A

Pressure: 30.01 "Hg

Humidity: 48%

Dew Point: 49 °F

Location of MandurahLocation

Past Weather in Mandurah — Graph

°F

Mandurah Temperature Yesterday

Maximum temperature yesterday: 83 °F (at 11:00 am)
Minimum temperature yesterday: 60 °F (at 6:00 am)
Average temperature yesterday: 71 °F

High & Low Weather Summary for the Past Weeks

 TemperatureHumidityPressure
High90 °F (Jan 10, 3:00 pm)87% (Jan 12, 5:00 am)30.09 "Hg (Jan 12, 5:00 am)
Low59 °F (Jan 20, 6:00 am)24% (Jan 14, 5:00 pm)29.62 "Hg (Jan 11, 6:00 pm)
Average71 °F55%29.86 "Hg
* Reported Jan 10 3:00 am — Jan 25 3:00 am, Mandurah, Weather by CustomWeather, © 2017

Note: Actual official high and low records may vary slightly from our data, if they occured in-between our weather recording intervals... More about our weather records

Advertising

Mandurah Weather History for the Previous 24 Hours

Scroll right to see more
 ConditionsComfort  
Time TempWeatherWind HumidityBarometerVisibility
3:00 am
Wed, Jan 25
69 °FMild.6 mph48%30.01 "HgN/A
2:00 am69 °FMild.8 mph57%30.00 "HgN/A
12:00 am70 °FMild.9 mph63%30.02 "HgN/A
11:00 pm
Tue, Jan 24
71 °FMild.12 mph60%30.03 "HgN/A
9:00 pm72 °FMild.12 mph62%30.03 "HgN/A
8:00 pm72 °FMild.12 mph60%30.02 "HgN/A
6:00 pm75 °FMild.14 mph53%30.00 "HgN/A
5:00 pm79 °FWarm.12 mph44%29.98 "HgN/A
3:00 pm81 °FWarm.14 mph44%29.99 "HgN/A
2:00 pm80 °FWarm.14 mph44%30.01 "HgN/A
12:00 pm83 °FPleasantly warm.7 mph28%30.04 "HgN/A
11:00 am83 °FPleasantly warm.5 mph27%30.07 "HgN/A
9:00 am72 °FMild.6 mph41%30.08 "HgN/A
8:00 am66 °FMild.10 mph50%30.09 "HgN/A
6:00 am60 °FCool.5 mph62%30.08 "HgN/A
5:00 am60 °FCool.6 mph61%30.07 "HgN/A
Weather by CustomWeather, © 2017

See weather overviewHow to use our weather pages